Voltar ao catálogo

FENGYUN 1C DEB

AtivoSSO
NORAD 30571·DEBRIS·🇨🇳 China

Lançado May 10, 1999 de Taiyuan Satellite Launch Center

Loading…

Próximas Passagens (próximas 24 horas)

TLE

AtualizadoSource: Space-Track

Época: Sep 14, 2026, 00:07 UTC

1 30571U 99025ALM 26257.00523668  .00000294  00000-0  18717-3 0  9995
2 30571  98.7091 280.0977 0021660 171.6111 250.1869 14.10922904  7626

Acompanhe FENGYUN 1C DEB em tempo real com AllMySat

Download on the App Store